Columbia, CA

1:25 PM PST on February 12, 2016 (GMT -0800)
Columbia Airport

Weather History for KO22 - August, 2013

Change the Weather History Date:

Monday, August 26, 2013

  Actual Average (KMOD) Record (KMOD)
Temperature  
Mean Temperature 70 °F -  
Max Temperature 86 °F 93 °F 104 °F (1988)
Min Temperature 53 °F 62 °F 49 °F (1955)
Degree Days  
Heating Degree Days 0 0  
Month to date heating degree days 0  
Since 1 June heating degree days 3  
Since 1 July heating degree days 0  
Cooling Degree Days 4 12  
Month to date cooling degree days 342  
Year to date cooling degree days 1277  
Since 1 June cooling degree days 1078  
Growing Degree Days 20 (Base 50)    
Moisture  
Dew Point 47 °F    
Average Humidity 47    
Maximum Humidity 77    
Minimum Humidity 25    
Precipitation  
Precipitation 0.00 in 0.00 in 0.03 in (1935)
Month to date precipitation 0.02  
Year to date precipitation 8.77  
Snow  
Snow 0.00 in - - ()
Month to date snowfall  
Since 1 June snowfall  
Since 1 July snowfall  
Snow Depth -    
Sea Level Pressure  
Sea Level Pressure 29.97 in    
Wind  
Wind Speed 3 mph (WSW)    
Max Wind Speed 10 mph    
Max Gust Speed 18 mph    
Visibility 8 miles    
Events      
T = Trace of Precipitation, MM = Missing Value Source: NWS Daily Summary

Daily Weather History Graph

Daily Weather History Graph

Search for Another Location

Airport or City:

Trip Planner

Search our weather history database for the weather conditions in past years. The results will help you decide how hot, cold, wet, or windy it might be!

Date:

Astronomy

Aug. 26, 2013 Rise Set
Actual Time 6:26 AM PDT 7:39 PM PDT
Civil Twilight 5:59 AM PDT 8:06 PM PDT
Nautical Twilight 5:26 AM PDT 8:39 PM PDT
Astronomical Twilight 4:52 AM PDT 9:12 PM PDT
Moon 11:00 PM PDT (8/26) 12:26 PM PDT (8/26)
Length of Visible Light 14h 07m
Length of Day
13h 12m
Waning Gibbous, 65% of the Moon is Illuminated
Aug 26
Waning Gibbous
Aug 28
Last Quarter
Sep 5
New
Sep 12
First Quarter
Sep 19
Full

Hourly Weather History & Observations

Time (PDT) Temp. Dew Point Humidity Pressure Visibility Wind Dir Wind Speed Gust Speed Precip Events Conditions
12:15 AM 59.0 °F 48.2 °F 67% 29.96 in 10.0 mi NE 3.5 mph - N/A   Partly Cloudy
12:35 AM 59.0 °F 50.0 °F 72% 29.97 in 10.0 mi Calm Calm - N/A   Mostly Cloudy
12:55 AM 59.0 °F 48.2 °F 67% 29.97 in 10.0 mi NE 3.5 mph - N/A   Overcast
1:15 AM 59.0 °F 48.2 °F 67% 29.97 in 10.0 mi NE 3.5 mph - N/A   Overcast
1:35 AM 57.2 °F 46.4 °F 67% 29.97 in 10.0 mi Calm Calm - N/A   Mostly Cloudy
1:55 AM 57.2 °F 46.4 °F 67% 29.97 in 10.0 mi Calm Calm - N/A   Scattered Clouds
2:15 AM 57.2 °F 46.4 °F 67% 29.97 in 10.0 mi Calm Calm - N/A   Partly Cloudy
2:35 AM 57.2 °F 46.4 °F 67% 29.97 in 10.0 mi Calm Calm - N/A   Clear
2:55 AM 57.2 °F 46.4 °F 67% 29.98 in 10.0 mi Calm Calm - N/A   Clear
3:15 AM 57.2 °F 46.4 °F 67% 29.98 in 10.0 mi NE 3.5 mph - N/A   Clear
3:35 AM 55.4 °F 46.4 °F 72% 29.98 in 10.0 mi Calm Calm - N/A   Partly Cloudy
3:55 AM 55.4 °F 46.4 °F 72% 29.98 in 10.0 mi Calm Calm - N/A   Clear
4:15 AM 55.4 °F 46.4 °F 72% 29.98 in 10.0 mi Calm Calm - N/A   Clear
4:35 AM 55.4 °F 46.4 °F 72% 29.99 in 8.0 mi NE 3.5 mph - N/A   Clear
4:55 AM 55.4 °F 46.4 °F 72% 29.99 in 7.0 mi NE 3.5 mph - N/A   Clear
5:15 AM 55.4 °F 46.4 °F 72% 29.99 in 6.0 mi NE 3.5 mph - N/A   Clear
5:35 AM 55.4 °F 46.4 °F 72% 29.99 in 5.0 mi Calm Calm - N/A   Clear
5:55 AM 53.6 °F 46.4 °F 77% 30.00 in 5.0 mi ENE 3.5 mph - N/A   Clear
6:15 AM 53.6 °F 46.4 °F 77% 30.00 in 5.0 mi Calm Calm - N/A   Clear
6:35 AM 55.4 °F 46.4 °F 72% 30.00 in 4.0 mi Calm Calm - N/A   Clear
6:55 AM 55.4 °F 46.4 °F 72% 30.01 in 5.0 mi Calm Calm - N/A   Partly Cloudy
7:15 AM 57.2 °F 48.2 °F 72% 30.01 in 6.0 mi Calm Calm - N/A   Partly Cloudy
7:35 AM 60.8 °F 48.2 °F 63% 30.01 in 4.0 mi Calm Calm - N/A   Scattered Clouds
7:55 AM 64.4 °F 48.2 °F 56% 30.01 in 3.0 mi Calm Calm - N/A   Mostly Cloudy
8:15 AM 68.0 °F 48.2 °F 49% 30.01 in 2.5 mi Calm Calm - N/A   Scattered Clouds
8:35 AM 71.6 °F 48.2 °F 43% 30.01 in 1.8 mi Calm Calm - N/A   Clear
8:55 AM 73.4 °F 46.4 °F 38% 30.02 in 1.5 mi Calm Calm - N/A   Clear
9:15 AM 75.2 °F 46.4 °F 36% 30.02 in 1.0 mi Calm Calm - N/A   Clear
9:35 AM 75.2 °F 46.4 °F 36% 30.02 in 1.0 mi SSW 3.5 mph - N/A   Clear
9:55 AM 77.0 °F 46.4 °F 34% 30.02 in 1.0 mi SSW 3.5 mph - N/A   Clear
10:15 AM 80.6 °F 46.4 °F 30% 30.02 in 2.5 mi SE 5.8 mph - N/A   Clear
10:35 AM 80.6 °F 46.4 °F 30% 30.01 in 5.0 mi SSW 6.9 mph - N/A   Clear
10:55 AM 82.4 °F 46.4 °F 28% 30.01 in 4.0 mi South 6.9 mph - N/A   Clear
11:15 AM 84.2 °F 46.4 °F 27% 30.01 in 5.0 mi SSW 8.1 mph - N/A   Clear
11:35 AM 82.4 °F 46.4 °F 28% 30.00 in 3.0 mi South 5.8 mph - N/A   Clear
11:55 AM 84.2 °F 46.4 °F 27% 30.00 in 3.0 mi SSW 8.1 mph - N/A   Clear
12:15 PM 84.2 °F 48.2 °F 29% 29.99 in 5.0 mi South 5.8 mph - N/A   Clear
12:35 PM 84.2 °F 48.2 °F 29% 29.99 in 7.0 mi SSW 5.8 mph - N/A   Clear
12:55 PM 84.2 °F 50.0 °F 30% 29.99 in 10.0 mi South 4.6 mph - N/A   Clear
1:15 PM 86.0 °F 50.0 °F 29% 29.99 in 10.0 mi SW 9.2 mph - N/A   Clear
1:35 PM 86.0 °F 50.0 °F 29% 29.98 in 10.0 mi SW 8.1 mph - N/A   Clear
1:55 PM 86.0 °F 50.0 °F 29% 29.98 in 10.0 mi WSW 9.2 mph 17.3 mph N/A   Clear
2:15 PM 86.0 °F 50.0 °F 29% 29.98 in 10.0 mi West 10.4 mph 18.4 mph N/A   Clear
2:35 PM 86.0 °F 50.0 °F 29% 29.98 in 10.0 mi West 9.2 mph - N/A   Clear
2:55 PM 86.0 °F 48.2 °F 27% 29.97 in 10.0 mi West 4.6 mph - N/A   Clear
3:15 PM 86.0 °F 48.2 °F 27% 29.96 in 10.0 mi WSW 9.2 mph - N/A   Clear
3:35 PM 84.2 °F 48.2 °F 29% 29.96 in 10.0 mi WSW 8.1 mph - N/A   Clear
3:55 PM 86.0 °F 46.4 °F 25% 29.96 in 10.0 mi SW 4.6 mph - N/A   Clear
4:15 PM 86.0 °F 46.4 °F 25% 29.96 in 10.0 mi WSW 6.9 mph - N/A   Clear
4:35 PM 86.0 °F 46.4 °F 25% 29.95 in 10.0 mi SW 4.6 mph - N/A   Clear
4:55 PM 84.2 °F 44.6 °F 25% 29.95 in 10.0 mi SSW 3.5 mph - N/A   Clear
5:15 PM 84.2 °F 44.6 °F 25% 29.95 in 10.0 mi West 4.6 mph - N/A   Clear
5:35 PM 84.2 °F 44.6 °F 25% 29.94 in 10.0 mi West 8.1 mph - N/A   Clear
5:55 PM 84.2 °F 44.6 °F 25% 29.94 in 10.0 mi West 6.9 mph - N/A   Clear
6:15 PM 82.4 °F 46.4 °F 28% 29.94 in 10.0 mi WSW 5.8 mph - N/A   Clear
6:35 PM 82.4 °F 46.4 °F 28% 29.94 in 10.0 mi WNW 5.8 mph - N/A   Clear
6:55 PM 80.6 °F 46.4 °F 30% 29.94 in 10.0 mi WNW 5.8 mph - N/A   Clear
7:15 PM 77.0 °F 46.4 °F 34% 29.94 in 10.0 mi NW 4.6 mph - N/A   Clear
7:35 PM 75.2 °F 46.4 °F 36% 29.94 in 10.0 mi NW 4.6 mph - N/A   Clear
7:55 PM 73.4 °F 46.4 °F 38% 29.94 in 10.0 mi Calm Calm - N/A   Clear
8:15 PM 71.6 °F 48.2 °F 43% 29.94 in 10.0 mi Calm Calm - N/A   Clear
8:35 PM 68.0 °F 48.2 °F 49% 29.95 in 10.0 mi ENE 3.5 mph - N/A   Clear
8:55 PM 68.0 °F 48.2 °F 49% 29.95 in 10.0 mi NE 4.6 mph - N/A   Clear
9:15 PM 66.2 °F 48.2 °F 52% 29.95 in 10.0 mi NNE 3.5 mph - N/A   Clear
9:35 PM 66.2 °F 48.2 °F 52% 29.95 in 10.0 mi NE 4.6 mph - N/A   Clear
9:55 PM 64.4 °F 48.2 °F 56% 29.95 in 10.0 mi NE 3.5 mph - N/A   Clear
10:15 PM 62.6 °F 48.2 °F 59% 29.95 in 10.0 mi Calm Calm - N/A   Clear
10:35 PM 62.6 °F 48.2 °F 59% 29.94 in 10.0 mi NNE 3.5 mph - N/A   Clear
10:55 PM 62.6 °F 48.2 °F 59% 29.94 in 10.0 mi Calm Calm - N/A   Clear
11:15 PM 62.6 °F 48.2 °F 59% 29.94 in 10.0 mi NE 3.5 mph - N/A   Clear
11:35 PM 62.6 °F 48.2 °F 59% 29.94 in 10.0 mi Calm Calm - N/A   Clear
11:55 PM 62.6 °F 48.2 °F 59% 29.94 in 10.0 mi Calm Calm - N/A   Clear